This demonstration page uses our WeatherBlox Daily Observations layout. Learn more.

Left ArrowRight Arrow

Hourly Observations for May 7, 2020

Temp ( °F °C ) Dew Point ( °F °C ) Humidity (%) Winds ( mph kmh ) Pressure ( in mb ) Visibility ( mi km ) Precip ( " mm )
12:53 am 00:53 Clear 69 20.6 23 -5 17 17 NNW 10 17 30.07 1018 10 16 0.00 0.00
1:53 am 01:53 Clear 68 20 23 -5 18 18 NNW 9 15 30.06 1018 10 16 0.00 0.00
2:53 am 02:53 Clear 67 19.4 22 -5.6 18 18 NNW 9 15 30.05 1018 10 16 0.00 0.00
3:53 am 03:53 Clear 66 18.9 22 -5.6 19 19 N 14 22 30.03 1017 10 16 0.00 0.00
4:53 am 04:53 Clear 66 18.9 23 -5 19 19 N 12 19 30.02 1017 10 16 0.00 0.00
5:53 am 05:53 Clear 65 18.3 23 -5 20 20 NNW 12 19 30.03 1017 10 16 0.00 0.00
6:53 am 06:53 Sunny 65 18.3 25 -3.9 22 22 NNW 12 19 30.03 1017 10 16 0.00 0.00
7:53 am 07:53 Sunny 68 20 26 -3.3 21 21 N 13 20 30.02 1017 10 16 0.00 0.00
8:53 am 08:53 Sunny 71 21.7 27 -2.8 19 19 N 16 26 30.02 1017 10 16 0.00 0.00
9:53 am 09:53 Sunny 74 23.3 28 -2.2 18 18 NNW 15 24 30.01 1016 10 16 0.00 0.00
10:53 am 10:53 Sunny 79 26.1 30 -1.1 17 17 N 13 20 29.99 1016 10 16 0.00 0.00
11:53 am 11:53 Sunny 81 27.2 31 -0.6 16 16 N 12 19 29.98 1015 10 16 0.00 0.00
12:53 pm 12:53 Sunny 86 30 32 0 14 14 N 17 28 29.95 1014 10 16 0.00 0.00
1:53 pm 13:53 Sunny 88 31.1 32 0 13 13 N 14 22 29.93 1014 10 16 0.00 0.00
2:53 pm 14:53 Sunny 90 32.2 34 1.1 14 14 NW 8 13 29.91 1013 10 16 0.00 0.00
3:53 pm 15:53 Sunny 91 32.8 33 0.6 13 13 N 7 11 29.89 1012 10 16 0.00 0.00
4:53 pm 16:53 Sunny 92 33.3 34 1.1 13 13 VRB 6 9 29.87 1011 10 16 0.00 0.00
5:53 pm 17:53 Sunny 92 33.3 33 0.6 12 12 NW 6 9 29.85 1011 10 16 0.00 0.00
6:53 pm 18:53 Sunny 91 32.8 32 0 12 12 NNW 3 6 29.83 1010 10 16 0.00 0.00
7:53 pm 19:53 Sunny 80 26.7 46 7.8 30 30 Calm 29.83 1010 10 16 0.00 0.00
8:53 pm 20:53 Clear 74 23.3 48 8.9 40 40 Calm 29.84 1010 10 16 0.00 0.00
9:53 pm 21:53 Clear 70 21.1 47 8.3 44 44 Calm 29.85 1011 10 16 0.00 0.00
10:53 pm 22:53 Clear 65 18.3 49 9.4 56 56 Calm 29.85 1011 10 16 0.00 0.00
11:53 pm 23:53 Clear 63 17.2 48 8.9 58 58 N 3 6 29.86 1011 10 16 0.00 0.00

Powered by AerisWeather